FW3322 Weather Reports


Display with metric or nautical units.
time (UTC)temp
F
wind
direction
speed
MPH
gust
MPH
rain 1hr
in
rain 24hr
in
rain mn
in
humidity
%
barometer
mb
20260903160014 90 173 5.0 12.0 0.00 0.00 0.00 61 1014.2
20260903154512 90 206 5.0 11.0 0.00 0.00 0.00 61 1014.2
20260903153010 90 205 3.0 14.0 0.00 0.00 0.00 62 1014.2
20260903151508 89 150 3.0 10.0 0.00 0.00 0.00 63 1014.1
20260903150005 88 187 5.0 10.0 0.00 0.00 0.00 65 1014.1
20260903144512 87 227 3.0 11.0 0.00 0.00 0.00 65 1014.2
20260903143058 86 218 1.0 11.0 0.00 0.00 0.00 68 1014.4
20260903141559 86 136 5.0 12.0 0.00 0.00 0.00 68 1014.5
20260903140055 85 203 1.0 9.0 0.00 0.00 0.00 70 1014.5
20260903134552 84 140 3.0 8.0 0.00 0.00 0.00 70 1014.5
20260903133057 83 167 1.0 8.0 0.00 0.00 0.00 73 1014.6
20260903131546 81 178 3.0 8.0 0.00 0.00 0.00 75 1014.3
20260903130049 80 138 1.0 5.0 0.00 0.00 0.00 77 1014.4
20260903124550 78 154 0.0 2.0 0.00 0.00 0.00 80 1014.3
20260903123042 0 0.0 0.0 0.00 0.00 0.00 1014.3
20260903121539 0 0.0 0.0 0.00 0.00 0.00 1014.3
20260903120051 0 0.0 0.0 0.00 0.00 0.00 1014.2
20260903114529 0 0.0 0.0 0.00 0.00 0.00 1014.1
20260903113050 0 0.0 0.0 0.00 0.00 0.00 1014.0
20260903111520 0 0.0 0.0 0.00 0.00 0.00 1013.9
20260903110015 0 0.0 0.0 0.00 0.00 0.00 1013.9
20260903104511 0 0.0 0.0 0.00 0.00 0.00 1013.8
20260903103008 76 134 0.0 2.0 0.00 0.00 0.00 79 1013.6
20260903101520 77 149 0.0 2.0 0.00 0.00 0.00 79 1013.7
20260903100015 77 146 1.0 2.0 0.00 0.00 0.00 79 1013.6
20260903094514 78 131 1.0 4.0 0.00 0.00 0.00 77 1013.6
20260903093003 79 148 1.0 3.0 0.00 0.00 0.00 76 1013.5
20260903091502 79 140 0.0 2.0 0.00 0.00 0.00 76 1013.4
20260903090002 79 146 0.0 2.0 0.00 0.00 0.00 75 1013.5
20260903084604 80 137 0.0 2.0 0.00 0.00 0.00 73 1013.4
20260903083059 81 141 0.0 2.0 0.00 0.00 0.00 72 1013.4
20260903081557 81 146 2.0 5.0 0.00 0.00 0.00 72 1013.2
20260903080059 81 139 1.0 3.0 0.00 0.00 0.00 73 1013.1
20260903074555 81 130 1.0 5.0 0.00 0.00 0.00 71 1013.1
20260903073055 82 142 0.0 4.0 0.00 0.00 0.00 71 1013.1
20260903071600 82 156 1.0 3.0 0.00 0.00 0.00 70 1013.1
20260903070051 82 153 2.0 6.0 0.00 0.00 0.00 71 1013.1
20260903064555 81 142 1.0 5.0 0.00 0.00 0.00 72 1013.1
20260903063046 79 145 1.0 4.0 0.00 0.00 0.00 75 1013.1
20260903061547 78 129 1.0 2.0 0.00 0.00 0.00 76 1013.1
20260903060043 78 129 0.0 0.0 0.00 0.00 0.00 78 1013.0
20260903054542 78 113 0.0 0.0 0.00 0.00 0.00 80 1013.0
20260903053040 78 112 0.0 0.0 0.00 0.00 0.00 80 1012.9
20260903051553 79 112 0.0 0.0 0.00 0.00 0.00 80 1013.0
20260903050038 80 113 0.0 0.0 0.00 0.00 0.00 78 1013.0
20260903044540 80 113 0.0 0.0 0.00 0.00 0.00 75 1012.9
20260903043112 79 113 0.0 0.0 0.00 0.00 0.00 76 1012.8
20260903041532 78 112 0.0 1.0 0.00 0.00 0.00 81 1012.8
20260903040032 80 111 0.0 0.0 0.00 0.00 0.00 79 1012.7
20260903034634 80 111 0.0 0.0 0.00 0.00 0.00 76 1012.6
20260903033033 81 111 0.0 0.0 0.00 0.00 0.00 76 1012.6
20260903031530 81 111 0.0 0.0 0.00 0.00 0.00 77 1012.5
20260903030032 81 111 0.0 4.0 0.00 0.00 0.00 77 1012.5
20260903024529 82 215 0.0 0.0 0.00 0.00 0.00 74 1012.4
20260903023028 82 215 0.0 0.0 0.00 0.00 0.00 72 1012.3
20260903021528 84 215 0.0 0.0 0.00 0.00 0.00 70 1012.1
20260903020027 85 215 0.0 0.0 0.00 0.00 0.00 69 1012.0
20260903014526 86 215 0.0 0.0 0.00 0.00 0.00 66 1011.8
20260903013027 88 215 0.0 0.0 0.00 0.00 0.00 64 1011.7
20260903011526 90 215 0.0 0.0 0.00 0.00 0.00 59 1011.5
20260903010025 92 215 0.0 0.0 0.00 0.00 0.00 58 1011.4
20260903004526 94 215 0.0 0.0 0.00 0.00 0.00 56 1011.4
20260903003024 96 215 0.0 0.0 0.00 0.00 0.00 53 1011.4
20260903001523 97 219 0.0 0.0 0.00 0.00 0.00 50 1011.4
20260903000022 98 146 1.0 5.0 0.00 0.00 0.00 49 1011.4
20260902234524 98 151 2.0 7.0 0.00 0.00 0.00 48 1011.4
20260902233021 100 140 2.0 6.0 0.00 0.00 0.00 47 1011.4
20260902231520 100 144 3.0 7.0 0.00 0.00 0.00 46 1011.5
20260902230019 100 132 5.0 11.0 0.00 0.00 0.00 47 1011.6
20260902224526 100 198 2.0 6.0 0.00 0.00 0.00 46 1011.5
20260902223024 100 140 5.0 8.0 0.00 0.00 0.00 46 1011.6
20260902221518 101 178 4.0 14.0 0.00 0.00 0.00 45 1011.8
20260902220014 101 121 4.0 9.0 0.00 0.00 0.00 46 1011.8
20260902214513 102 205 1.0 7.0 0.00 0.00 0.00 44 1011.9
20260902213010 100 233 4.0 12.0 0.00 0.00 0.00 45 1012.1
20260902211507 100 132 5.0 10.0 0.00 0.00 0.00 46 1012.3
20260902210006 100 114 4.0 9.0 0.00 0.00 0.00 46 1012.5
20260902204503 101 131 2.0 10.0 0.00 0.00 0.00 46 1012.7
20260902203001 99 169 6.0 13.0 0.00 0.00 0.00 47 1012.9
20260902201606 100 186 1.0 10.0 0.00 0.00 0.00 48 1013.1
20260902200133 99 155 5.0 12.0 0.00 0.00 0.00 49 1013.2
20260902194555 100 167 8.0 14.0 0.00 0.00 0.00 48 1013.5
20260902193051 100 212 4.0 9.0 0.00 0.00 0.00 49 1013.7
20260902191550 100 240 3.0 11.0 0.00 0.00 0.00 49 1013.9
20260902190057 99 140 4.0 10.0 0.00 0.00 0.00 49 1014.1
20260902184541 100 77 5.0 10.0 0.00 0.00 0.00 49 1014.3
20260902183038 98 141 3.0 13.0 0.00 0.00 0.00 51 1014.6
20260902181535 98 142 4.0 10.0 0.00 0.00 0.00 50 1014.9
20260902180032 98 217 6.0 11.0 0.00 0.00 0.00 50 1015.1
20260902174528 97 184 3.0 11.0 0.00 0.00 0.00 53 1015.3
20260902173027 97 223 4.0 9.0 0.00 0.00 0.00 52 1015.4
20260902171523 95 222 4.0 9.0 0.00 0.00 0.00 55 1015.7
20260902170020 95 136 5.0 11.0 0.00 0.00 0.00 56 1015.8
20260902164517 94 217 5.0 11.0 0.00 0.00 0.00 58 1016.0
20260902163014 93 201 4.0 11.0 0.00 0.00 0.00 58 1016.1
20260902161512 92 215 4.0 9.0 0.00 0.00 0.00 59 1016.2